Theta_e
309 309 322 325 333 333 338 337 331 334 326 323 322 321 321 321 322 321 331 336 335 329 328 324 324 320 319 320 321 323 324 323 322 322 326 329 330 331 332 332 332 331 330 330 330 330 329 328 329
309 313 324 330 337 342 339 336 336 329 324 320 320 320 321 323 326 327 334 337 336 334 331 325 322 319 320 321 322 324 325 326 327 330 334 335 334 332 332 333 333 333 333 333 333 332 332 330 329
313 321 324 336 336 341 339 337 333 331 326 321 322 322 322 324 325 328 331 332 336 334 328 324 321 320 321 322 324 326 328 329 333 336 337 337 336 336 336 334 333 334 333 332 331 332 332 332 331
323 331 330 337 339 335 336 335 332 332 323 321 322 325 323 324 325 328 327 329 334 332 328 324 323 323 323 324 325 325 327 330 333 338 339 337 337 335 334 332 333 334 333 332 332 332 334 333 332
331 329 339 337 337 333 331 330 326 325 323 322 322 325 323 324 326 326 327 331 331 330 328 326 325 326 325 326 325 325 326 324 331 338 338 337 336 335 335 334 333 333 332 332 332 333 334 335 333
331 325 331 333 331 329 328 326 326 327 326 323 324 323 322 323 326 327 328 329 327 327 328 327 327 328 328 328 326 324 323 322 331 336 335 331 330 329 333 334 333 332 331 332 332 332 333 331 333
331 330 333 331 334 330 329 326 327 326 325 322 322 323 322 323 326 327 328 328 328 329 329 330 332 331 328 326 323 323 322 322 323 326 326 324 324 324 324 329 330 330 331 330 330 332 332 331 333
327 328 332 329 331 330 328 326 324 325 325 322 324 325 324 321 325 326 330 330 330 329 331 334 333 328 326 324 325 324 322 321 323 324 324 326 326 325 328 328 327 327 328 328 328 330 330 330 331
324 329 331 330 329 329 326 327 327 324 323 323 321 323 323 324 324 323 328 330 330 332 334 333 328 326 325 325 324 323 323 323 323 324 326 327 327 326 324 324 323 327 329 330 330 329 330 330 331
328 329 330 328 328 328 326 328 327 325 325 322 324 323 324 323 322 321 322 324 328 330 329 327 327 326 326 325 323 324 325 327 326 328 328 327 326 324 323 322 324 326 328 329 330 330 330 331 331
327 330 328 328 329 328 328 328 328 327 327 322 323 323 322 320 320 321 321 323 325 326 327 328 327 326 324 322 324 326 327 327 327 327 329 327 325 324 324 322 322 323 325 324 325 325 330 331 331
329 329 329 329 329 329 329 328 328 328 327 326 322 323 321 320 320 321 321 321 322 322 324 324 325 323 323 326 327 327 328 327 327 327 327 326 326 325 325 324 323 325 325 325 325 325 328 330 330
328 327 327 328 328 328 328 328 328 328 327 326 323 323 322 321 320 321 321 321 321 320 321 323 323 323 327 327 326 326 327 327 327 328 328 328 326 326 326 326 323 324 324 324 325 325 327 328 329
324 325 327 328 329 329 329 329 328 327 325 324 321 322 322 322 320 319 318 320 320 320 321 322 324 327 326 325 325 327 328 329 328 328 329 329 328 327 326 326 324 323 323 323 324 325 326 328 328
316 317 318 320 323 325 326 326 326 325 323 322 321 320 321 322 321 319 320 319 321 321 321 324 327 326 326 325 326 328 328 329 329 329 329 329 329 327 326 326 324 323 323 324 324 325 326 327 327
317 317 319 320 321 323 320 324 323 322 322 323 322 319 320 320 320 321 320 319 320 323 325 327 327 327 327 326 327 328 328 328 329 329 330 329 328 328 326 325 324 323 324 324 323 324 325 326 326
315 317 317 318 319 320 321 323 323 323 322 322 323 322 319 319 317 319 319 320 321 325 327 327 327 327 326 326 327 327 328 329 329 330 330 328 327 327 326 325 323 322 325 325 323 324 324 325 325
316 316 317 318 319 319 320 321 322 323 323 323 323 323 321 319 317 318 320 320 322 326 327 327 327 327 327 328 327 327 329 329 330 329 329 328 328 326 323 321 319 325 325 325 323 323 324 325 326
318 317 318 319 320 320 321 322 322 322 321 321 321 321 321 320 319 321 320 321 324 326 327 327 327 327 327 328 327 330 329 330 330 330 329 329 329 327 324 321 323 326 325 324 323 323 324 325 325
318 318 318 319 319 320 320 320 321 321 321 322 323 323 321 324 323 321 321 323 325 326 327 327 326 327 328 327 330 330 330 330 329 329 330 330 329 327 326 322 325 326 325 324 323 323 324 324 325
318 317 318 318 320 320 320 322 322 322 322 322 322 321 321 323 324 323 322 324 325 326 326 326 327 327 327 330 329 329 330 330 329 329 329 329 328 327 327 325 325 326 325 323 323 323 325 325 326
316 316 317 318 319 321 321 324 322 321 322 322 320 319 320 323 323 323 323 321 324 326 326 328 328 328 328 329 329 330 329 328 330 329 328 328 327 327 325 325 326 325 324 324 324 324 325 326 326
316 318 319 320 319 320 322 322 321 321 323 322 321 320 321 322 323 323 321 322 325 326 328 328 328 327 329 329 329 329 326 329 328 328 327 326 327 327 326 326 325 325 325 325 324 324 326 327 327
316 317 318 318 319 322 322 322 322 321 322 322 322 324 322 321 322 320 321 322 323 325 328 328 327 328 330 330 329 328 327 327 327 327 327 327 327 327 326 326 326 325 326 325 325 325 326 326 327
313 314 317 320 321 324 320 322 323 321 321 322 322 323 322 322 322 322 321 320 322 325 327 327 326 328 330 330 329 328 326 326 325 326 327 328 327 327 326 327 326 326 326 326 326 326 326 326 327
314 315 320 323 323 323 321 324 324 322 321 321 321 322 323 324 323 322 320 321 322 325 327 326 326 327 328 329 328 329 326 325 325 327 328 328 327 327 326 327 326 326 327 327 326 326 326 325 327
313 317 317 319 321 322 322 322 321 323 326 326 326 325 324 324 323 322 320 320 322 324 326 326 326 325 326 328 328 329 328 328 328 328 328 328 327 327 326 326 326 326 327 327 327 326 326 325 328
312 312 314 315 322 325 324 324 325 323 328 328 327 325 325 323 323 322 320 320 323 325 326 326 327 325 327 328 328 329 329 330 328 327 328 328 328 328 326 326 326 327 328 328 328 328 328 327 329
312 314 313 313 316 321 323 323 320 321 325 327 326 325 324 324 324 323 320 320 323 324 325 326 327 324 327 327 327 329 330 328 327 327 328 329 329 329 328 326 326 327 328 328 328 329 329 331 328
314 314 313 319 320 319 321 323 321 319 322 325 324 325 323 323 323 322 320 319 320 323 323 323 326 325 325 327 328 330 330 328 326 327 329 328 329 329 329 329 329 329 329 329 329 329 329 328 328
Wind_Speed
5 9 5 2 3 4 4 6 3 7 4 3 3 3 6 2 5 4 5 23 20 32 30 33 28 25 23 20 17 16 17 16 15 14 13 13 12 11 10 10 9 8 8 8 8 8 8 7 7
10 9 3 2 3 1 5 4 6 7 6 3 5 2 1 3 2 4 12 25 22 28 32 34 29 26 23 19 17 17 17 16 15 14 15 14 13 12 12 12 12 11 11 10 10 10 10 9 9
11 4 3 3 3 5 4 3 7 9 8 5 3 1 2 3 1 13 7 25 26 29 31 31 29 27 24 20 18 17 16 15 16 15 16 15 15 14 15 15 15 15 14 14 14 13 12 11 11
6 3 3 2 7 7 5 9 11 13 5 2 5 3 4 8 5 18 17 26 29 30 31 32 30 26 23 20 18 15 16 16 16 17 17 17 15 15 16 17 18 17 16 16 16 17 15 14 13
2 3 1 3 6 5 6 12 8 6 6 3 4 5 4 4 10 19 29 30 31 30 32 31 28 25 23 21 18 16 15 14 17 16 16 17 17 17 17 17 18 18 18 19 19 19 18 16 15
3 3 1 4 5 5 7 10 5 6 6 3 2 6 5 6 14 25 30 31 28 28 30 29 27 25 23 21 18 15 14 13 14 15 15 15 17 17 17 17 18 19 19 20 20 20 19 18 17
5 3 4 4 9 7 7 3 2 4 7 6 4 7 4 5 22 32 31 30 28 26 27 28 27 24 21 18 14 14 13 13 14 14 14 14 15 15 16 18 19 20 20 21 22 21 21 19 18
5 4 3 5 4 10 5 3 2 3 10 2 3 5 6 7 24 25 27 27 26 26 28 29 27 24 21 18 16 14 13 15 15 13 13 13 13 13 13 14 15 19 21 22 23 23 24 23 21
5 2 6 7 7 8 4 4 3 4 5 2 7 6 6 17 27 24 25 24 26 27 30 30 28 25 22 18 15 13 14 15 15 16 15 14 14 15 14 16 15 13 15 17 21 21 23 21 20
5 5 10 11 8 8 8 6 14 5 11 7 7 6 2 30 27 22 19 21 28 30 31 29 27 24 20 16 15 15 15 15 16 18 16 15 14 15 13 12 11 14 15 17 15 19 19 19 20
7 13 23 12 14 5 9 17 11 11 15 11 10 7 6 10 17 20 23 30 38 35 31 28 25 23 20 17 13 15 15 15 16 18 19 16 16 14 11 12 11 10 13 16 15 14 16 19 20
6 13 19 20 19 5 12 10 17 18 17 18 9 7 9 12 15 17 22 29 32 32 31 28 27 24 18 12 12 13 14 11 10 10 13 17 16 14 13 12 12 12 12 12 12 11 13 17 19
8 19 17 14 12 14 15 20 21 20 20 19 12 9 15 17 18 27 29 32 33 30 31 32 29 22 16 13 13 12 8 8 9 11 14 16 16 16 15 15 12 12 11 12 11 11 13 16 18
6 10 13 13 18 17 22 22 13 22 12 17 7 12 15 17 20 16 18 27 30 31 36 33 28 20 15 11 12 8 6 6 9 11 13 14 16 16 16 16 13 13 12 12 11 12 13 15 17
6 12 14 16 12 21 15 19 22 19 11 13 10 12 15 19 16 18 34 32 37 33 38 33 25 18 15 10 7 6 5 9 11 12 12 14 15 15 16 16 15 14 12 11 11 12 12 15 15
5 2 7 6 12 15 9 25 20 19 12 17 15 11 12 16 18 31 26 26 29 32 33 28 22 19 15 9 7 6 7 10 11 12 12 12 12 14 13 15 16 14 12 11 12 13 12 14 14
2 13 13 17 10 7 8 16 11 9 8 13 15 12 12 16 11 19 25 28 32 36 33 26 21 18 13 9 6 6 8 8 9 12 12 11 10 13 15 16 16 13 12 11 12 12 13 12 14
11 7 13 22 3 11 17 15 20 18 10 14 17 15 12 13 20 16 25 28 34 34 30 24 19 15 12 7 5 6 6 7 10 12 12 11 10 11 14 15 14 12 11 12 13 13 13 10 10
7 15 16 16 3 8 8 9 17 16 7 12 13 13 13 7 2 17 25 34 37 33 29 23 19 15 11 6 5 5 6 7 11 12 14 13 10 11 12 14 12 11 11 10 12 15 12 11 6
11 10 20 15 9 7 11 13 17 14 12 12 14 16 4 4 5 9 21 25 30 33 28 22 17 14 9 4 3 5 6 7 9 11 10 11 8 10 12 12 10 10 11 10 13 16 13 10 10
18 18 16 19 1 6 10 14 14 17 7 11 10 8 6 11 11 12 15 22 29 31 26 21 17 12 7 5 1 3 5 7 7 7 4 6 6 7 11 12 10 10 11 12 16 17 16 10 11
18 17 19 19 6 8 4 5 5 8 12 7 11 8 9 7 8 13 13 14 25 28 22 19 15 12 9 5 1 2 4 5 5 3 3 2 2 4 6 9 9 10 11 13 16 18 16 13 13
19 13 11 11 9 5 11 3 7 3 8 11 11 7 5 7 10 14 12 17 25 24 21 18 16 11 9 5 1 2 4 4 2 1 2 2 2 4 6 6 8 9 9 12 14 18 16 13 15
6 3 2 6 1 11 18 6 5 6 8 7 4 2 7 8 9 9 14 22 22 21 20 18 15 11 10 7 3 2 3 2 1 2 3 4 3 5 7 7 7 7 5 10 12 16 17 15 16
7 7 2 3 4 6 7 6 15 10 10 9 9 8 9 9 11 14 16 10 18 22 21 20 15 12 9 9 4 1 2 1 2 4 5 3 3 7 10 8 8 5 7 9 10 13 13 13 19
17 14 6 7 4 4 6 6 9 5 9 9 9 8 9 12 11 13 12 12 18 23 24 20 16 12 10 9 4 0 1 1 2 5 5 2 3 8 11 9 8 5 7 7 8 9 11 13 17
16 16 14 2 2 2 4 7 10 3 3 3 7 9 9 11 12 14 11 14 21 25 25 21 17 12 11 9 5 1 0 2 3 4 4 4 6 8 11 10 9 6 7 8 8 10 11 12 15
10 10 8 4 5 4 4 4 6 5 3 3 6 8 7 7 9 10 9 13 22 28 26 20 18 15 13 9 5 2 1 3 4 4 4 4 5 7 10 10 10 6 7 8 9 12 10 10 11
7 8 4 8 5 5 2 6 7 9 9 11 9 8 12 12 13 12 9 16 25 27 24 19 18 15 14 10 6 5 2 3 5 4 3 2 4 6 8 9 10 9 9 10 11 12 13 15 15
18 18 13 8 8 6 4 8 4 8 11 11 10 10 8 10 12 11 11 14 18 24 22 19 19 17 14 10 8 7 5 5 5 5 4 5 6 6 9 11 11 12 12 12 15 16 15 15 16
Wind_Direction
145 127 116 48 49 59 266 256 238 285 318 240 130 149 203 115 156 214 168 170 188 187 186 191 192 195 200 201 203 205 204 211 214 220 222 221 227 233 241 246 248 250 257 261 270 269 265 258 253
143 130 98 88 96 53 264 264 247 237 223 111 66 36 321 190 178 116 141 180 189 184 187 192 193 197 200 201 205 209 213 218 220 224 227 229 233 237 249 254 256 258 260 262 261 264 263 258 256
138 92 87 106 152 201 230 239 288 292 283 178 119 46 229 234 144 171 189 181 182 184 186 193 194 197 200 202 206 212 219 226 228 230 235 236 235 239 242 250 255 253 255 260 264 265 264 263 255
138 42 35 114 237 263 246 281 259 276 329 188 138 170 275 208 184 183 177 177 177 183 190 195 196 198 199 202 209 218 225 232 238 235 240 247 245 247 248 253 252 253 256 259 262 263 257 248 247
134 57 125 237 242 252 250 257 285 214 229 171 174 209 241 271 174 180 171 173 178 188 195 198 197 199 201 204 211 221 229 238 240 239 245 250 256 260 257 255 252 252 256 257 256 258 252 248 244
67 100 68 249 229 241 269 257 250 290 298 193 184 152 226 272 183 175 173 179 186 194 196 197 198 201 203 207 214 218 225 236 241 242 245 257 261 265 264 261 258 258 256 258 257 257 253 254 244
130 102 226 251 278 289 228 249 263 296 296 253 137 156 251 246 185 176 182 187 192 196 196 196 198 200 205 211 221 222 229 239 242 243 244 254 268 274 275 265 261 261 261 261 259 257 257 255 247
129 121 258 242 215 276 219 300 302 307 294 47 107 207 249 213 176 177 186 195 196 197 197 195 196 199 203 211 218 225 235 236 238 243 253 259 266 270 268 265 262 261 261 262 259 255 253 250 246
135 113 244 237 185 248 249 358 269 290 266 289 206 177 238 189 174 165 168 178 186 191 195 197 197 197 202 206 219 228 236 237 235 242 249 255 265 276 273 266 268 264 257 260 257 250 250 248 242
160 176 233 221 208 247 287 298 292 327 299 277 274 262 201 166 166 165 170 181 188 194 198 199 199 197 196 200 213 234 232 231 232 244 249 250 269 274 275 274 266 261 262 266 277 252 243 243 234
189 218 234 272 241 219 277 286 290 280 288 255 264 241 166 162 180 183 185 188 196 202 199 198 199 196 190 201 214 221 221 228 240 249 250 246 261 262 272 275 272 259 261 260 264 271 239 237 223
253 231 240 249 262 265 256 287 280 282 271 275 248 228 169 180 190 194 198 200 202 205 202 197 190 184 189 198 203 211 217 230 243 259 245 253 263 262 267 274 265 268 268 271 265 261 235 228 223
210 243 244 264 278 271 276 266 265 280 280 280 272 183 188 192 200 207 204 205 208 200 194 183 180 183 189 190 197 199 209 230 247 256 261 267 260 259 264 263 266 271 269 271 264 251 236 225 223
240 254 267 259 263 267 268 275 281 275 276 282 206 210 201 200 205 200 206 209 211 207 192 182 178 182 183 188 198 203 219 249 259 268 276 270 261 260 261 257 259 263 265 270 262 248 235 223 220
246 275 272 266 259 262 274 281 267 275 270 270 251 227 214 208 206 210 207 203 203 192 181 178 176 179 182 189 198 220 254 264 267 279 278 272 264 261 261 250 251 264 262 258 248 237 230 220 220
351 285 267 247 238 257 180 264 271 270 266 268 268 239 214 221 212 217 213 200 189 177 178 176 178 181 184 196 213 246 271 278 276 280 274 272 268 261 253 241 247 257 251 252 238 227 222 222 225
245 258 277 285 237 261 191 274 270 263 236 259 270 261 222 226 225 214 205 190 179 179 174 174 180 181 187 192 225 266 289 291 283 278 267 268 270 256 245 242 245 250 246 243 231 222 219 220 225
217 235 248 252 252 223 253 260 274 278 269 272 279 274 226 222 222 196 180 180 177 174 172 170 169 174 179 186 226 268 280 294 286 276 265 269 268 254 242 238 238 241 241 237 226 215 206 213 220
195 226 245 257 215 249 246 262 276 280 282 270 273 264 242 242 155 153 161 168 170 170 168 166 165 173 178 194 230 262 282 302 303 284 268 260 261 252 238 236 229 234 233 232 212 197 200 203 199
230 243 256 285 260 232 269 263 271 282 276 261 253 263 189 146 160 152 147 151 162 165 166 162 170 171 174 195 235 279 290 301 311 301 264 259 262 247 236 224 221 228 221 209 192 186 181 195 198
224 228 249 249 343 256 282 284 278 283 299 275 258 238 196 199 173 156 150 158 158 163 165 165 170 167 168 168 164 311 312 316 317 318 279 286 268 246 233 217 218 225 210 202 189 186 188 171 186
229 220 241 254 265 263 133 288 294 275 295 290 277 251 240 156 147 156 156 146 157 165 163 164 163 161 168 158 119 352 340 335 314 323 323 307 260 224 190 200 215 204 197 195 193 191 190 186 170
232 219 232 247 254 262 256 271 265 255 288 274 265 261 229 154 152 157 149 148 161 161 164 162 162 170 179 176 205 336 -0 354 306 2 342 306 264 199 202 194 176 185 197 201 196 193 197 192 173
175 200 273 263 279 262 267 181 220 228 222 263 256 43 145 135 120 115 128 152 159 164 162 163 167 171 182 187 212 343 12 48 286 350 326 317 257 191 180 173 179 171 191 190 198 199 196 193 185
175 115 260 280 214 223 237 178 242 261 237 231 240 190 145 131 133 145 156 151 155 163 164 169 176 180 186 189 205 4 18 42 325 10 346 307 194 183 174 166 165 162 155 168 179 190 196 191 182
206 179 165 201 197 195 169 233 253 239 280 232 252 149 141 143 147 158 159 155 161 167 170 177 185 183 185 186 195 79 14 328 355 13 359 350 169 176 173 167 168 156 152 171 179 166 181 183 187
200 207 185 17 317 83 211 279 329 317 314 215 140 130 158 149 156 157 159 160 164 172 176 183 187 185 185 187 188 164 67 346 337 347 8 91 132 157 170 178 177 177 179 176 178 175 176 175 181
165 146 187 195 205 198 268 258 216 240 224 166 146 162 142 135 143 158 160 163 173 179 182 187 188 190 185 184 186 163 92 4 36 39 99 106 138 162 182 183 181 172 180 177 171 162 166 165 158
163 211 154 159 219 168 185 252 218 203 185 192 201 177 163 160 164 168 165 171 179 184 185 188 191 189 185 188 187 166 125 83 61 90 87 77 136 159 174 181 184 181 171 169 163 149 147 135 149
196 204 209 175 201 227 158 260 220 210 193 189 181 173 161 163 168 165 165 162 172 182 184 189 188 189 188 187 178 158 136 115 83 98 84 103 110 133 154 163 165 164 157 158 151 138 132 142 146